Location: Pella
(41.4080°N, 92.9160°W)
Time: 13:12:39
(UTC-06:00)

Daily predictions for brighter satellites

Satellite Brightness Start Highest point End
(mag) Time Altitude Azimuth Time Altitude Azimuth Time Altitude Azimuth
NOSS 2-2 (E) 3.8 18:09:15 10° SSW 18:13:08 48° ESE 18:17:34 10° NE
ATLAS CENTAUR R/B 3.2 18:16:40 10° WSW 18:20:53 34° NW 18:24:52 10° NNE
Cosmos 1812 3.7 18:20:09 10° NNE 18:23:27 27° ENE 18:26:46 10° SE
Cosmos 44 Rocket 3.3 18:24:46 10° NNW 18:29:28 55° NE 18:34:04 10° SE
DELTA 2 R/B (1) 3.8 18:24:06 10° WSW 18:29:41 70° S 18:35:04 11° E
Okean 3 3.8 18:26:44 10° NNW 18:31:03 74° W 18:35:18 10° S
NOSS 2-2 (D) 3.5 18:28:50 10° SSW 18:32:48 66° ESE 18:37:20 10° NE
Cosmos 1697 Rocket 4.3 18:37:25 10° NW 18:42:39 39° WSW 18:47:50 10° S
Meteor 1-18 Rocket 4.2 18:38:05 10° N 18:43:35 59° ENE 18:49:04 10° SSE
Cosmos 2360 Rocket 3.5 18:39:55 10° N 18:44:06 21° NE 18:46:58 15° E
Cosmos 1980 Rocket 2.7 18:39:42 10° NNW 18:45:19 64° WSW 18:50:56 10° S
NOSS 5 (C) 4.3 18:41:58 10° SW 18:45:36 87° NW 18:48:42 10° NE
Cosmos 1461 3.9 18:43:01 10° N 18:46:24 25° NE 18:48:31 17° E
SJ-6B 2.8 18:44:34 10° SSE 18:48:35 63° ENE 18:52:32 10° N
Tiangong 2 1.1 18:46:17 10° W 18:49:21 66° N 18:51:10 22° E
NOSS 2-2 (C) 3.5 18:45:56 10° SW 18:49:57 82° NW 18:54:36 10° NNE
Cosmos 1992 Rocket 4.0 18:46:07 10° NNW 18:51:23 87° ENE 18:56:37 10° SSE
Cosmos 1975 Rocket 3.3 18:47:23 10° NNW 18:51:42 72° W 18:55:59 10° S
Cosmos 407 Rocket 3.8 18:47:42 10° S 18:52:35 43° ESE 18:57:34 10° NNE
Helios 1A 4.3 18:52:22 18° E 18:53:20 20° ENE 18:56:22 10° NNE
METEOR-M 4.2 18:51:25 10° SSE 18:56:46 83° WSW 19:02:08 10° NNW
FengYun 1-2 T 4.2 18:54:43 10° SSE 19:00:03 57° ENE 19:05:26 10° N
ERBS 3.0 18:58:32 10° NW 19:01:56 54° SW 19:05:18 10° SSE
Cosmos 44 2.9 18:58:11 10° NNW 19:02:38 71° NE 19:06:47 11° SE
NOAA 12 4.5 18:59:09 10° S 19:04:25 69° WSW 19:09:45 10° NNW
Nadezhda 1 Rocket 4.0 18:58:23 10° N 19:04:31 86° W 19:10:34 10° S
Resurs 01 Rocket 1.7 19:02:08 10° SSE 19:06:24 50° ENE 19:10:40 10° N
GEOS 3 Rocket 3.7 19:01:48 10° NNE 19:07:03 80° NW 19:12:20 10° SW
Cosmos 2181 Rocket 4.2 19:03:52 10° N 19:09:50 46° ENE 19:15:50 10° SSE
Cosmos 1536 Rocket 3.6 19:06:04 10° N 19:10:28 55° E 19:14:51 10° SSE
Meteor 1-13 Rocket 4.4 19:08:30 10° N 19:13:48 45° ENE 19:19:07 10° SSE
SL-16 R/B 2.1 19:08:33 10° NNW 19:14:16 80° ENE 19:19:56 10° SSE
Cosmos 1190 Rocket 3.9 19:09:57 10° SSW 19:15:07 82° ESE 19:20:21 10° NNE
Meteor 1-20 Rocket 4.3 19:10:10 10° S 19:15:59 86° W 19:21:53 10° N
Okean 1 3.2 19:13:28 10° N 19:17:33 80° E 19:21:36 10° S
DNEPR-1 R/B 3.3 19:14:22 10° NNW 19:18:38 68° NE 19:20:47 28° SE
FREGAT/IRIS 4.2 19:18:32 10° SSW 19:21:26 38° W 19:24:21 10° NNW
Helios 1B rocket 3.8 19:27:48 24° SSE 19:27:48 24° SSE 19:29:45 10° SSE
Cosmos 1140 Rocket 3.9 19:21:34 10° SSE 19:26:11 35° E 19:26:22 35° E
Spot 2 Rocket 3.4 19:22:14 10° SSE 19:27:16 81° ENE 19:32:21 10° NNW
Cosmos 1633 2.7 19:25:09 10° S 19:28:24 53° ESE 19:28:24 53° ESE
CZ-2D R/B 3.1 19:32:26 56° ESE 19:32:55 63° ENE 19:36:42 10° N
Cosmos 1340 2.5 19:29:08 10° N 19:32:55 66° E 19:33:19 60° ESE
Cosmos 2322 Rocket 2.4 19:28:47 10° NNW 19:34:22 69° WSW 19:39:56 10° SSE
Cosmos 2074 Rocket 4.4 19:29:12 10° SSE 19:34:51 38° E 19:40:33 10° NNE
Resurs 1-3 3.5 19:32:00 10° SSE 19:36:22 89° E 19:40:48 10° NNW
Cosmos 1709 Rocket 3.9 19:30:40 10° S 19:36:56 90° W 19:43:10 10° N
Cosmos 1238 Rocket 4.3 19:36:37 10° N 19:37:41 19° N 19:37:41 19° N
Cosmos 2322 3.9 19:36:14 10° NNW 19:41:47 48° ENE 19:42:35 45° E
ALOS 3.0 19:38:04 10° S 19:42:37 52° W 19:47:12 10° NNW
Envisat 3.9 19:44:45 31° NE 19:44:45 31° NE 19:48:03 10° N
Cosmos 1954 Rocket 3.8 19:39:16 10° S 19:44:24 71° ESE 19:47:49 22° NNE
Cosmos 1300 Rocket 3.4 19:41:45 10° S 19:46:09 82° E 19:50:35 10° N
Meteor 1-11 Rocket 3.6 19:41:30 10° S 19:47:12 73° E 19:53:03 10° NNE
H-2A R/B 3.1 19:45:43 19° S 19:48:10 59° W 19:51:52 10° NNW
Meteor 2-4 Rocket 3.7 19:43:46 10° N 19:49:19 56° ENE 19:49:50 54° E
COSMOS 2428 3.7 19:46:11 10° N 19:50:11 29° NE 19:50:11 29° NE
Spot 1 3.8 19:52:14 85° S 19:52:21 88° W 19:56:27 10° NNW
Cosmos 1818 3.7 19:57:45 10° SW 20:03:11 75° WNW 20:05:18 38° NNE
BREEZE-M DEB (TANK) 2.8 20:02:13 10° WNW 20:04:21 58° NW 20:04:21 58° NW
Cosmos 2237 Rocket 4.3 20:05:13 10° N 20:06:20 13° NNE 20:06:20 13° NNE
Okean 1 Rocket 4.5 20:06:40 10° SSW 20:16:05 - N 20:08:55 29° SSW
DELTA 2 R/B (1) 3.7 20:10:27 10° W 20:15:51 67° SSW 20:15:51 67° SSW
Tiangong 2 4.5 20:22:49 10° W 20:23:09 12° W 20:23:09 12° W
Cosmos 2360 Rocket 2.4 20:23:00 10° NNW 20:28:36 65° WSW 20:28:48 64° WSW
Helios 1A 4.5 20:29:01 34° W 20:29:01 34° W 20:32:31 10° NNW
Cosmos 2219 Rocket 3.9 20:28:34 10° N 20:30:39 21° N 20:30:39 21° N
Cosmos 2333 Rocket 4.1 20:41:59 10° N 20:43:49 20° N 20:43:49 20° N
